Beaumont, TX

12:26 AM CDT on August 24, 2017 (GMT -0500)
Southeast Texas Regional

Weather History for KBPT - March, 2013

Change the Weather History Date:

Monday, March 18, 2013

  Actual Average Record
Temperature  
Mean Temperature 74 °F 62 °F  
Max Temperature 83 °F 72 °F 85 °F (1925)
Min Temperature 64 °F 53 °F 33 °F (1960)
Degree Days  
Heating Degree Days 0 4  
Month to date heating degree days 141 103  
Since 1 July heating degree days 1113 1316  
Cooling Degree Days 9 2  
Month to date cooling degree days 16 25  
Year to date cooling degree days 46 51  
Growing Degree Days 23 (Base 50)    
Moisture  
Dew Point 66 °F    
Average Humidity 79    
Maximum Humidity 100    
Minimum Humidity 58    
Precipitation  
Precipitation 0.00 in 0.11 in 2.15 in (1905)
Month to date precipitation 0.08 2.05  
Year to date precipitation 11.60 10.89  
Snow  
Snow 0.00 in 0.00 in 0.00 in ()
Month to date snowfall 0.0 0.0  
Since 1 July snowfall 0.0 T  
Snow Depth 0.00 in    
Sea Level Pressure  
Sea Level Pressure 29.80 in    
Wind  
Wind Speed 7 mph (South)    
Max Wind Speed 16 mph    
Max Gust Speed 20 mph    
Visibility 4 miles    
Events Fog    
T = Trace of Precipitation, MM = Missing Value Source: NWS Daily Summary

Daily Weather History Graph

Daily Weather History Graph

Search for Another Location

Airport or City:

Trip Planner

Search our weather history database for the weather conditions in past years. The results will help you decide how hot, cold, wet, or windy it might be!

Date:

Astronomy

Mar. 18, 2013 Rise Set
Actual Time 7:21 AM CDT 7:26 PM CDT
Civil Twilight 6:58 AM CDT 7:50 PM CDT
Nautical Twilight 6:30 AM CDT 8:18 PM CDT
Astronomical Twilight 6:02 AM CDT 8:46 PM CDT
Moon 11:46 AM CDT (3/18) 1:02 AM CDT (3/18)
Length of Visible Light 12h 52m
Length of Day
12h 04m
Waxing Crescent, 41% of the Moon is Illuminated
Mar 18
Waxing Crescent
Mar 19
First Quarter
Mar 27
Full
Apr 2
Last Quarter
Apr 10
New

Hourly Weather History & Observations

Time (CDT) Temp. Heat Index Dew Point Humidity Pressure Visibility Wind Dir Wind Speed Gust Speed Precip Events Conditions
12:53 AM 66.9 °F - 66.9 °F 100% 29.79 in 0.8 mi South 8.1 mph - N/A   Mist
1:27 AM 66.2 °F - 66.2 °F 100% 29.79 in 0.2 mi South 6.9 mph - N/A Fog Fog
1:36 AM 66.2 °F - 66.2 °F 100% 29.79 in 0.5 mi South 5.8 mph - N/A Fog Fog
1:51 AM 66.2 °F - 66.2 °F 100% 29.79 in 0.2 mi South 6.9 mph - N/A Fog Fog
1:53 AM 66.9 °F - 66.0 °F 97% 29.79 in 0.2 mi South 5.8 mph - N/A Fog Fog
2:06 AM 66.2 °F - 66.2 °F 100% 29.79 in 0.5 mi South 6.9 mph - N/A Fog Fog
2:20 AM 66.2 °F - 66.2 °F 100% 29.78 in 0.2 mi South 6.9 mph - N/A Fog Fog
2:28 AM 66.2 °F - 66.2 °F 100% 29.78 in 0.5 mi SSE 6.9 mph - N/A Fog Fog
2:51 AM 66.2 °F - 66.2 °F 100% 29.75 in 0.5 mi South 12.7 mph - N/A Fog Fog
2:53 AM 66.9 °F - 66.0 °F 97% 29.75 in 0.2 mi SSE 11.5 mph - N/A Fog Fog
3:28 AM 66.2 °F - 66.2 °F 100% 29.76 in 0.5 mi South 8.1 mph - N/A Fog Fog
3:46 AM 66.2 °F - 66.2 °F 100% 29.78 in 0.5 mi SW 3.5 mph - N/A Fog Fog
3:53 AM 66.9 °F - 66.9 °F 100% 29.76 in 0.5 mi South 5.8 mph - N/A Fog Fog
4:53 AM 66.9 °F - 66.0 °F 97% 29.77 in 0.5 mi South 5.8 mph - N/A Fog Fog
5:29 AM 66.2 °F - 66.2 °F 100% 29.78 in 1.2 mi SSW 4.6 mph - N/A   Overcast
5:33 AM 66.2 °F - 66.2 °F 100% 29.79 in 2.0 mi SSW 5.8 mph - N/A   Overcast
5:43 AM 66.2 °F - 66.2 °F 100% 29.79 in 3.0 mi SSW 5.8 mph - N/A   Overcast
5:49 AM 66.2 °F - 66.2 °F 100% 29.79 in 1.8 mi SSW 3.5 mph - N/A   Overcast
5:50 AM 66.0 °F - 66.0 °F 100% 29.79 in 1.5 mi SSW 3.5 mph - N/A   Overcast
6:15 AM 66.2 °F - 66.2 °F 100% 29.80 in 1.0 mi SW 4.6 mph - N/A   Overcast
6:25 AM 66.2 °F - 66.2 °F 100% 29.80 in 0.8 mi SSW 5.8 mph - N/A   Mist
6:53 AM 66.0 °F - 66.0 °F 100% 29.82 in 0.5 mi SSW 4.6 mph - N/A Fog Fog
7:33 AM 66.2 °F - 66.2 °F 100% 29.83 in 0.2 mi SSW 3.5 mph - N/A Fog Fog
7:53 AM 66.0 °F - 66.0 °F 100% 29.83 in 0.2 mi South 3.5 mph - N/A Fog Fog
8:46 AM 68.0 °F - 66.2 °F 94% 29.84 in 0.5 mi South 5.8 mph - N/A Fog Fog
8:53 AM 66.9 °F - 66.9 °F 100% 29.84 in 0.5 mi South 5.8 mph - N/A Fog Fog
9:38 AM 69.8 °F - 68.0 °F 94% 29.83 in 1.5 mi South 8.1 mph - N/A   Overcast
9:46 AM 69.8 °F - 69.8 °F 100% 29.83 in 2.5 mi South 9.2 mph - N/A   Overcast
9:53 AM 70.0 °F - 68.0 °F 93% 29.83 in 4.0 mi South 9.2 mph - N/A   Overcast
10:06 AM 71.6 °F - 68.0 °F 88% 29.83 in 5.0 mi South 10.4 mph - N/A   Overcast
10:53 AM 73.0 °F - 66.9 °F 81% 29.84 in 6.0 mi SSW 8.1 mph - N/A   Haze
11:04 AM 73.4 °F - 66.2 °F 78% 29.84 in 7.0 mi SSW 11.5 mph - N/A   Mostly Cloudy
11:53 AM 78.1 °F - 66.0 °F 66% 29.83 in 8.0 mi SSW 12.7 mph 18.4 mph N/A   Mostly Cloudy
12:53 PM 78.1 °F - 66.0 °F 66% 29.82 in 9.0 mi SSW 8.1 mph - N/A   Mostly Cloudy
1:23 PM 80.6 °F 82.3 °F 64.4 °F 58% 29.81 in 10.0 mi South 11.5 mph - N/A   Scattered Clouds
1:53 PM 81.0 °F 83.0 °F 66.0 °F 60% 29.79 in 10.0 mi SW 10.4 mph - N/A   Partly Cloudy
2:53 PM 82.0 °F 84.1 °F 66.0 °F 58% 29.77 in 10.0 mi South 9.2 mph - N/A   Clear
3:53 PM 82.0 °F 84.1 °F 66.0 °F 58% 29.75 in 10.0 mi South 8.1 mph - N/A   Clear
4:53 PM 79.0 °F - 66.0 °F 64% 29.76 in 9.0 mi South 13.8 mph - N/A   Clear
5:53 PM 77.0 °F - 66.0 °F 69% 29.75 in 9.0 mi South 11.5 mph - N/A   Clear
6:53 PM 72.0 °F - 64.9 °F 78% 29.77 in 8.0 mi South 9.2 mph - N/A   Clear
7:53 PM 69.1 °F - 64.0 °F 84% 29.80 in 7.0 mi South 6.9 mph - N/A   Clear
8:53 PM 66.9 °F - 64.9 °F 93% 29.83 in 6.0 mi SW 4.6 mph - N/A   Clear
9:53 PM 66.0 °F - 64.9 °F 96% 29.86 in 5.0 mi Calm Calm - N/A   Scattered Clouds
10:53 PM 64.9 °F - 64.0 °F 97% 29.88 in 3.0 mi Calm Calm - N/A   Mostly Cloudy
11:53 PM 64.9 °F - 64.0 °F 97% 29.90 in 5.0 mi North 3.5 mph - N/A   Overcast